Regional Weather Roundup
Issued by NWS Little Rock, AR

Home | Current Version | Previous Version | Graphics & Text | Print | Product List | Glossary On
Versions: 1 2 3 4 5 6 7 8 9 10 11 12 13 14 15 16 17 18 19 20 21 22 23 24 25 26 27 28 29 30 31 32 33 34 35 36 37 38 39 40 41 42 43 44 45 46 47 48 49 50
000
ASUS44 KLZK 270405
RWRLZK

WEATHER ROUNDUP FOR ARKANSAS
NATIONAL WEATHER SERVICE LITTLE ROCK AR
1000 PM CST SUN FEB 26 2017

NOTE: "FAIR" INDICATES FEW OR NO CLOUDS BELOW 12,000 FEET WITH NO
SIGNIFICANT WEATHER AND/OR OBSTRUCTIONS TO VISIBILITY.

ARZ001-003-010-029-270500-
NORTHWEST ARKANSAS

CITY           SKY/WX    TMP DP  RH WIND       PRES   REMARKS
FAYETTEVILLE   MOCLDY    45  33  63 CALM      30.01R
FORT SMITH     CLOUDY    51  34  52 NE7       29.99S
HARRISON       CLOUDY    46  28  49 E6        30.03S
BENTONVILLE    MOCLDY    45  30  57 E6        30.02S
ROGERS         MOCLDY    46  30  53 E6        30.02R
SILOAM SPGS    FAIR      45  28  53 E5        30.01S
HIGHFILL       FAIR      44  31  60 NE5       30.01R
$$

ARZ004-005-016-270500-
NORTH CENTRAL ARKANSAS

CITY           SKY/WX    TMP DP  RH WIND       PRES   REMARKS
BATESVILLE     CLOUDY    46  39  76 CALM      30.10R
FLIPPIN        CLOUDY    48  25  40 E6        30.04R
$$

ARZ040-041-270500-
WEST CENTRAL ARKANSAS

CITY           SKY/WX    TMP DP  RH WIND       PRES   REMARKS
MENA           MOCLDY    52  43  71 CALM      30.00R
MOUNT IDA      MOCLDY    48  46  93 SE3       29.99S
$$

ARZ009-017-025-026-028-270500-
NORTHEAST ARKANSAS

CITY           SKY/WX    TMP DP  RH WIND       PRES   REMARKS
CORNING        CLOUDY    48  37  66 SE7       30.13S
JONESBORO      LGT RAIN  49  42  77 NW3       30.12R
NEWPORT        LGT RAIN  46  42  86 NE7       30.09
WALNUT RIDGE   CLOUDY    48  36  61 E9        30.10F
$$

ARZ022-023-033-042-044-270500-
CENTRAL ARKANSAS

CITY           SKY/WX    TMP DP  RH WIND       PRES   REMARKS
LITTLE ROCK    LGT RAIN  48  47  96 NE6       30.03R
N LITTLE ROCK    N/A     48  44  87 N3        30.07R
JACKSONVILLE   DRIZZLE   48  46  91 NE3       30.04R
SEARCY         LGT RAIN  46  44  93 N5        30.09R
HOT SPRINGS    LGT RAIN  48  46  93 E8        30.01F
RUSSELLVILLE   MOCLDY    50  34  54 E3        30.03R
CLINTON        CLOUDY    48  37  66 CALM      30.06S
$$

ARZ036-270500-
EAST ARKANSAS

CITY           SKY/WX    TMP DP  RH WIND       PRES   REMARKS
WEST MEMPHIS   CLOUDY    57  34  41 S10       30.06S
$$

ARZ050-053-066-070-073-270500-
SOUTHWEST ARKANSAS

CITY           SKY/WX    TMP DP  RH WIND       PRES   REMARKS
ARKADELPHIA    LGT RAIN  49  47  93 N8        30.03R
CAMDEN         MOCLDY    50  46  87 NW6       29.98R
TEXARKANA      LGT RAIN  49  49 100 NE9       30.00S
EL DORADO      CLOUDY    61  43  51 S8        29.96F
DE QUEEN       LGT RAIN  48  47  96 E6        29.97S
$$

ARZ056-057-069-270500-
SOUTHEAST ARKANSAS

CITY           SKY/WX    TMP DP  RH WIND       PRES   REMARKS
PINE BLUFF     CLOUDY    52  47  83 E7        29.99F
STUTTGART      CLOUDY    52  39  62 E6        30.02F
MONTICELLO     CLOUDY    58  36  43 E3        29.99F

$$





USA.gov is the U.S. government's official web portal to all federal, state and local government web resources and services.